DW5254 Weather Reports


time (UTC)temp
C
wind
direction
speed
KPH
gust
KPH
rain 1hr
cm
rain 24hr
cm
rain mn
cm
humidity
%
barometer
mb
20260504081513 15 317 11.3 17.7 0.03 0.03 0.03 77 1008.4
20260504044546 14 179 4.8 11.3 0.00 0.00 0.00 69 1009.6
20260504043040 14 194 4.8 9.7 0.00 0.00 0.00 69 1009.7
20260504041538 14 155 4.8 14.5 0.00 0.00 0.00 68 1009.6
20260504040046 14 219 4.8 14.5 0.00 0.00 0.00 69 1009.6
20260504034553 15 173 8.0 17.7 0.00 0.00 0.00 68 1009.8
20260504033036 15 235 8.0 17.7 0.00 0.00 0.00 68 1010.5
20260504031534 15 213 4.8 12.9 0.00 0.00 0.00 68 1010.8
20260504030042 15 205 8.0 17.7 0.00 0.00 0.00 65 1010.7
20260504024532 15 133 3.2 4.8 0.00 0.00 0.00 65 1010.9
20260504023033 15 73 0.0 4.8 0.00 0.00 0.00 66 1011.1
20260504021534 15 125 0.0 6.4 0.00 0.00 0.00 66 1010.7
20260504020031 16 273 0.0 8.0 0.00 0.00 0.00 64 1010.8
20260504014540 16 256 3.2 9.7 0.00 0.00 0.00 61 1010.8
20260504013033 16 140 1.6 4.8 0.00 0.00 0.00 65 1010.4
20260504011530 16 42 0.0 6.4 0.00 0.00 0.00 60 1010.6
20260504010029 16 109 0.0 6.4 0.00 0.00 0.00 59 1010.1
20260504004532 17 226 1.6 12.9 0.00 0.00 0.00 56 1010.1
20260504003034 18 218 3.2 16.1 0.00 0.00 0.00 54 1010.1
20260504001527 18 182 8.0 17.7 0.00 0.00 0.00 52 1010.1
20260504000026 19 215 8.0 22.5 0.00 0.00 0.00 51 1010.2
20260503234536 19 151 9.7 25.7 0.00 0.00 0.00 51 1010.3
20260503233022 20 194 9.7 24.1 0.00 0.00 0.00 51 1010.5
20260503231521 20 232 8.0 30.6 0.00 0.00 0.00 51 1010.9
20260503230020 20 268 9.7 29.0 0.00 0.00 0.00 49 1011.2
20260503224520 20 181 14.5 27.4 0.00 0.00 0.00 48 1011.1
20260503223019 20 228 14.5 29.0 0.00 0.00 0.00 48 1011.1
20260503221517 20 232 12.9 30.6 0.00 0.00 0.00 48 1011.0
20260503220017 20 130 6.4 33.8 0.00 0.00 0.00 51 1010.7
20260503214517 20 176 16.1 32.2 0.00 0.00 0.00 49 1010.7
20260503213015 19 226 14.5 40.2 0.00 0.00 0.00 51 1010.8
20260503211513 20 185 17.7 40.2 0.00 0.00 0.00 49 1011.1
20260503210011 19 266 16.1 37.0 0.00 0.00 0.00 50 1011.3
20260503204509 19 218 16.1 37.0 0.00 0.00 0.00 50 1011.8
20260503203009 19 244 14.5 38.6 0.00 0.00 0.00 51 1012.1
20260503201504 19 226 14.5 51.5 0.00 0.00 0.00 51 1012.5
20260503194557 17 148 12.9 35.4 0.00 0.00 0.00 54 1013.5
20260503193100 18 211 14.5 37.0 0.00 0.00 0.00 53 1014.0
20260503191608 18 160 9.7 40.2 0.00 0.00 0.00 51 1014.5
20260503190054 17 230 11.3 37.0 0.00 0.00 0.00 54 1014.8
20260503184557 17 224 14.5 33.8 0.00 0.00 0.00 52 1015.0
20260503183101 18 271 12.9 29.0 0.00 0.00 0.00 51 1015.3
20260503181544 17 322 9.7 37.0 0.00 0.00 0.00 53 1015.5
20260503180046 17 210 11.3 33.8 0.00 0.00 0.00 54 1016.0
20260503174539 17 219 9.7 29.0 0.00 0.00 0.00 54 1016.1
20260503173103 17 170 14.5 33.8 0.00 0.00 0.00 55 1016.5
20260503171534 17 252 12.9 27.4 0.00 0.00 0.00 55 1017.1